Regional Weather Roundup
Issued by NWS

Home | Current Version | Previous Version | Graphics & Text | Print | Product List | Glossary On
Versions: 1 2 3 4 5 6 7 8 9 10 11 12 13 14 15 16 17 18 19 20 21 22 23 24 25 26 27 28 29 30 31 32 33 34 35 36 37 38 39 40 41 42 43 44 45 46 47 48 49 50
000
ASUS43 KFSD 060810
RWRSD

WEATHER ROUNDUP FOR SOUTH DAKOTA
NATIONAL WEATHER SERVICE SIOUX FALLS SD
300 AM CDT MON JUL 06 2015

NOTE: "FAIR" INDICATES FEW OR NO CLOUDS BELOW 12,000 FEET WITH NO
SIGNIFICANT WEATHER AND/OR OBSTRUCTIONS TO VISIBILITY.


SDZ001>005-009-010-012>017-060900-
NORTHWEST AND NORTH CENTRAL SOUTH DAKOTA

CITY           SKY/WX    TMP DP  RH WIND       PRES   REMARKS
BUFFALO          N/A     58  54  86 NW10      30.07R
FAITH            N/A     61  56  83 N12       30.07R
MOBRIDGE       CLOUDY    67  65  93 N7        29.98R FOG
$$

SDZ012>016-024>037-041>051-057-063-072>074-060900-
SOUTHWEST AND SOUTH CENTRAL SOUTH DAKOTA

CITY           SKY/WX    TMP DP  RH WIND       PRES   REMARKS
RAPID CTY ARPT CLOUDY    61  56  83 N12       30.11R HAZE
PIERRE         LGT RAIN  64  62  93 NW9       29.97R FOG
CUSTER         CLOUDY    53  50  89 N8        30.18R FOG
ELLSWORTH AFB  CLOUDY    61  57  87 NW14      30.10R
PHILIP         CLOUDY    64  62  93 NW7       30.04R FOG
PINE RIDGE     LGT RAIN  61  58  90 N10       30.09R FOG
SPEARFISH      CLOUDY    57  55  94 W6        30.18R FOG
WINNER         LGT RAIN  67  65  93 N14       29.94R
$$

SDZ004>011-016>023-039-040-060900-
NORTHEAST SOUTH DAKOTA

CITY           SKY/WX    TMP DP  RH WIND       PRES   REMARKS
ABERDEEN       CLOUDY    70  65  84 N10       29.92R HAZE
WATERTOWN      LGT RAIN  67  64  90 N12       29.88R
BROOKINGS      CLOUDY    68  64  88 NW9       29.88R
SISSETON         N/A     68  65  90 N17       29.86R
$$

SDZ017-020-022-023-036>040-048>070-060900-
SOUTHEAST SOUTH DAKOTA

CITY           SKY/WX    TMP DP  RH WIND       PRES   REMARKS
SIOUX FALLS    RAIN      71  70  96 N8        29.86R FOG
HURON          RAIN      67  67 100 N7        29.89R FOG
CHAMBERLAIN    LGT RAIN  66  65  99 N14       29.92S
MITCHELL       CLOUDY    70  69  97 NE8       29.88R
YANKTON        CLOUDY    70  66  88 CALM      29.83S
$$

ABBREVIATIONS USED IN REMARKS
   TC - TEMPERATURE IN CELSIUS
  WCI - WIND CHILL INDEX
   HX - HEAT INDEX
  VSB - VISIBILITY




USA.gov is the U.S. government's official web portal to all federal, state and local government web resources and services.